This is the latest recevied weather packets stored in our database for station/object SQ2CDE-4. If no packets are shown the sender has not sent any weather packets the latest 10 day(s).
| Time | Temp. | Humidity | Pressure | Rain* | Wind** | Luminosity | Snow |
|---|---|---|---|---|---|---|---|
| 1777498108 | 1.11° C | 59% | 1031 hPa | - | - | - | - |
| 1777497507 | 1.11° C | 59% | 1031 hPa | - | - | - | - |
| 1777496906 | 1.11° C | 59% | 1031 hPa | - | - | - | - |
| 1777496306 | 2.22° C | 60% | 1031 hPa | - | - | - | - |
| 1777495705 | 2.22° C | 60% | 1031 hPa | - | - | - | - |
| 1777495104 | 2.22° C | 60% | 1031 hPa | - | - | - | - |
| 1777494503 | 2.22° C | 60% | 1031 hPa | - | - | - | - |
| 1777493902 | 2.22° C | 60% | 1031 hPa | - | - | - | - |
| 1777493301 | 2.22° C | 60% | 1031 hPa | - | - | - | - |
| 1777492700 | 2.78° C | 52% | 1031 hPa | - | - | - | - |
| 1777491498 | 3.89° C | 48% | 1031 hPa | - | - | - | - |
| 1777490898 | 3.89° C | 48% | 1031 hPa | - | - | - | - |
| 1777490297 | 3.89° C | 48% | 1031 hPa | - | - | - | - |
| 1777489696 | 3.89° C | 48% | 1031 hPa | - | - | - | - |
| 1777489095 | 5° C | 45% | 1031 hPa | - | - | - | - |
| 1777487894 | 5° C | 45% | 1031 hPa | - | - | - | - |
| 1777487293 | 5° C | 41% | 1031 hPa | - | - | - | - |
| 1777486692 | 5° C | 41% | 1031 hPa | - | - | - | - |
| 1777484289 | 6.11° C | 42% | 1031 hPa | - | - | - | - |
| 1777483688 | 7.22° C | 42% | 1030 hPa | - | - | - | - |
| 1777481882 | 7.22° C | 42% | 1030 hPa | - | - | - | - |
| 1777480676 | 7.22° C | 42% | 1030 hPa | - | - | - | - |
| 1777480074 | 7.22° C | 36% | 1030 hPa | - | - | - | - |
| 1777479471 | 7.22° C | 36% | 1030 hPa | - | - | - | - |
| 1777478265 | 7.78° C | 36% | 1030 hPa | - | - | - | - |
* Rain since midnight (hover to see other rain measurements)
** Current wind speed in m/s (hover to see current wind gust speed)